Reflectivity
9 7 3 10 9 5 -8 -18 -20 -20 -20 -20 -20 -20 -20 -20 -20 -20 -20 -20 -20 -20
14 10 1 -5 -14 -20 -20 -20 -20 -20 -20 -20 -20 -20 -20 -20 -20 -20 -20 -20 -20 -20
-3 -6 -13 -17 -20 -20 -20 -20 -20 -20 -20 -20 -20 -20 -20 -20 -20 -20 -20 -20 -20 -20
12 6 -14 -20 -20 -20 -20 -20 -20 -20 -20 -20 -20 -20 -20 -20 -20 -20 -20 -20 -20 -20
-1 0 -5 -20 -20 -20 -20 -20 -20 -20 -20 -20 -20 -13 -3 -1 -2 -5 -8 -13 -17 -19
13 10 5 -4 -20 -20 -20 -20 -20 -20 -20 -20 -20 -20 -20 -20 -20 -20 -20 -20 -20 -20
-20 -20 -20 -20 -20 -20 -20 -20 -20 -20 -20 -20 -20 -20 -20 -20 -20 -20 -20 -20 -20 -20
-20 -20 -20 -20 -20 -20 -20 -20 -20 -20 -20 -20 -20 -20 -20 -20 -20 -20 -20 -20 -20 -20
-20 -20 -20 -20 -20 -20 -20 -20 -20 -20 -20 -20 -20 -20 -20 -20 -20 -20 -20 -20 -20 -20
-20 -20 -20 -20 -20 -20 -20 -20 -20 -20 -20 -20 -20 -20 -20 -20 -20 -20 -20 -20 -20 -20
-20 -20 -20 -20 -20 -20 -20 -20 -20 -20 -20 -20 -20 -20 -20 -20 -20 -20 -20 -20 -20 -20
-20 -20 -20 -20 -20 -20 -20 -20 -20 -20 -20 -20 -20 -20 -20 -20 -20 -20 -20 -20 -20 -20
-20 -20 -20 -20 -20 -20 -20 -20 -20 -20 -20 -20 -20 -20 -20 -20 -20 -20 -20 -20 -20 -20
-20 -20 -20 -20 -20 -20 -20 -20 -20 -20 -20 -20 -20 -20 -20 -20 -20 -20 -20 -20 -20 -20
Wind_Speed
11 7 8 8 7 5 5 6 7 8 8 8 7 6 7 5 6 6 6 7 5 4
9 10 9 10 8 6 8 7 9 9 9 8 8 7 8 7 7 7 7 7 7 6
10 10 10 10 10 10 9 10 9 9 9 9 9 8 8 7 7 8 6 5 7 6
10 11 12 11 11 11 11 10 10 10 9 9 9 8 8 8 8 8 8 7 7 7
9 9 10 11 11 11 11 10 10 10 10 9 8 8 8 7 7 7 7 7 7 6
9 9 10 10 12 9 11 10 10 9 9 9 8 8 7 7 7 6 6 6 6 5
9 9 9 10 10 10 8 10 10 9 8 7 7 7 7 7 7 7 6 6 5 5
11 9 9 9 8 9 10 7 8 8 8 7 7 5 7 7 7 7 6 5 5 4
12 11 10 10 8 8 8 8 6 7 6 7 4 10 10 8 5 5 5 4 4 4
12 12 11 11 10 9 8 7 7 6 6 6 6 10 10 9 6 5 4 3 2 2
11 11 11 11 10 8 7 8 7 6 6 5 3 8 8 8 5 4 4 3 2 3
11 12 12 12 11 9 8 7 6 6 6 6 3 6 6 5 4 3 3 3 4 4
10 11 11 12 11 8 7 7 6 6 5 6 5 5 5 4 2 3 3 4 5 7
8 9 10 10 8 8 8 7 6 6 5 4 4 3 4 5 3 4 4 4 5 4
Wind_Direction
125 133 131 123 119 119 121 116 115 100 98 101 102 99 102 101 96 103 103 102 96 95
121 124 123 119 120 120 117 114 109 106 107 103 100 102 106 104 105 102 96 92 89 86
124 123 125 125 127 127 120 119 118 114 113 112 110 109 109 106 106 106 95 94 95 89
130 134 134 131 131 130 130 131 126 125 123 119 116 113 110 106 109 108 106 100 97 89
116 118 123 126 126 132 130 130 129 128 125 122 117 115 114 115 116 116 114 112 110 105
118 118 118 124 130 126 130 128 127 125 122 119 117 114 112 116 117 114 112 110 109 107
121 119 121 122 128 127 122 129 127 124 120 120 119 117 117 115 113 108 99 95 91 88
131 121 119 122 121 127 127 115 125 124 123 125 127 130 134 132 129 126 120 113 107 101
136 136 131 130 127 127 127 126 114 124 126 136 135 148 144 137 128 123 123 128 121 127
140 141 143 143 139 135 137 135 132 133 139 140 145 153 150 145 136 141 142 145 155 154
146 145 148 148 147 140 142 142 144 143 140 135 152 156 145 140 140 154 168 187 211 237
151 150 153 155 154 151 149 146 145 147 144 144 123 152 157 148 158 167 201 226 246 258
155 158 162 159 157 155 150 151 149 147 154 165 154 172 181 192 211 213 239 242 257 253
155 161 161 155 153 156 156 151 155 164 159 155 167 178 199 220 221 249 253 263 272 267